Location: Shannon
(40.5500°S, 175.4167°E)
Time: 22:10:41
(UTC+00:00)

Cosmos 1703 Rocket - Pass Details

Date: 17 November 2025
Orbit: 599 x 625 km, 82.5° (Epoch: 06 December)

Event Time Altitude Azimuth Distance (km) Brightness Sun altitude
Rises 15:07:25 0° 189° (S) 2,889 7.5 -16.6°
Reaches altitude 10° 15:09:39 10° 189° (S) 1,978 6.6 -16.3°
Maximum altitude 15:14:02 84° 275° (W) 620 3.4 -15.7°
Enters shadow 15:18:03 12° 4° (N) 1,829 5.6 -15.1°
